Weather Roundup
Issued by NWS

Home | Current Version | Previous Version | Graphics & Text | Print | Product List | Glossary Off
Versions: 1 2 3 4 5 6 7 8 9 10 11 12 13 14 15 16 17 18 19 20 21 22 23 24 25 26 27 28 29 30 31 32 33 34 35 36 37 38 39 40 41 42 43 44 45 46 47 48 49 50

000
NZUS93 KARX 292110
HRRWXR

CURRENT HOURLY OBSERVATIONS ACROSS
MUCH OF THE UPPER MISSISSIPPI VALLEY
NATIONAL WEATHER SERVICE LA CROSSE WI
400 PM CDT WED OCT 29 2014


...SOUTHEAST MINNESOTA...


CITY           SKY/WX    TMP DP  RH WIND       PRES   REMARKS
ROCHESTER      SUNNY     44  31  60 VRB5      30.12F
ROCHESTER/MAYO MOCLDY    45  30  55 W10       30.12S
WINONA         PTSUNNY   46  34  61 NW8       30.13S
AUSTIN         SUNNY     45  32  61 W7        30.12S
ALBERT LEA     SUNNY     45  32  61 NW6       30.12F
DODGE CENTER   PTSUNNY   43  34  70 W6        30.12S
PRESTON        SUNNY     43  32  64 W7        30.12F
OWATONNA       SUNNY     43  30  61 W5        30.13S
FARIBAULT      PTSUNNY   45  32  61 CALM      30.13F
$$

...ELSEWHERE IN MINNESOTA...


CITY           SKY/WX    TMP DP  RH WIND       PRES   REMARKS
MINNEAPOLIS    CLOUDY    41  31  67 CALM      30.12F
INTNL FALLS    CLOUDY    38  35  89 W8        30.04S WCI  32
DULUTH         CLOUDY    41  32  70 W8        30.05S
RED WING       SUNNY     46  28  49 CALM      30.11S
REDWOOD FALLS  SUNNY     46  29  51 S6        30.09F
MANKATO        SUNNY     45  28  53 SW5       30.12F
WORTHINGTON    SUNNY     48  28  46 SW9       30.09F
FAIRMONT       SUNNY     50  28  43 W3        30.11F
$$

...SOUTHWEST WISCONSIN...


CITY           SKY/WX    TMP DP  RH WIND       PRES   REMARKS
LA CROSSE      SUNNY     50  32  50 N5        30.11F
PRAIRIE DU CHI MOSUNNY   48  31  52 W6        30.12S
BOSCOBEL       MOSUNNY   50  32  50 VRB5      30.12S
LONE ROCK      SUNNY     52  31  44 W10       30.11R
PLATTEVILLE    MOSUNNY   47  32  55 W7        30.13R
FORT MC COY    MOSUNNY   46  31  56 W7        30.12R
CAMP DOUGLAS   MOSUNNY   48  34  57 W8        30.10R
VIROQUA        FAIR      46  32  57 W5        30.10S
WIS DELLS      MOSUNNY   46  31  57 NW9       30.09S
$$

...ELSEWHERE IN WISCONSIN...


CITY           SKY/WX    TMP DP  RH WIND       PRES   REMARKS
MILWAUKEE      CLOUDY    47  30  51 W14       30.08R
MADISON        PTSUNNY   48  31  51 W9        30.10R
GREEN BAY      CLOUDY    48  35  60 W10       30.05R
EAU CLAIRE     CLOUDY    45  32  60 W9        30.10S
BLACK RVR FLS  MOCLDY    46  31  54 W3        30.11R
MEDFORD        CLOUDY    43  33  65 NW9       30.07R
WAUSAU         PTSUNNY   43  33  68 W9        30.05S
WIS RAPIDS     MOSUNNY   46  31  55 W8        30.09S
MARSHFIELD     PTSUNNY   47  33  58 N10       30.07S
RICE LAKE      CLOUDY    42  32  69 SW6       30.11F
$$

...NORTHEAST IOWA...


CITY           SKY/WX    TMP DP  RH WIND       PRES   REMARKS
DECORAH        PTSUNNY   46  32  57 VRB5      30.11S
MASON CITY     SUNNY     47  33  58 NW6       30.14F
CHARLES CITY   SUNNY     46  32  57 NW8       30.13F
OELWEIN        SUNNY     46  32  57 VRB7      30.13F
$$

...ELSEWHERE IN IOWA...


CITY           SKY/WX    TMP DP  RH WIND       PRES   REMARKS
DES MOINES     SUNNY     55  33  43 VRB3      30.14F
IOWA CITY      SUNNY     50  33  52 W9        30.15S
FORT DODGE     SUNNY     52  34  50 SW6       30.13F
$$

...NORTHERN ILLINOIS...


CITY           SKY/WX    TMP DP  RH WIND       PRES   REMARKS
CHICAGO-OHARE  PTSUNNY   48  32  53 W9        30.09R
CHICAGO-MIDWAY CLOUDY    49  33  54 W12       30.10R
MOLINE         SUNNY     51  31  46 W9        30.13S
ROCKFORD       PTSUNNY   48  31  51 NW12      30.12S
PEORIA         PTSUNNY   53  32  44 NW6       30.13F
$$

NOTE: "FAIR" INDICATES FEW OR NO CLOUDS BELOW 12,000 FEET WITH NO
SIGNIFICANT WEATHER AND/OR OBSTRUCTIONS TO VISIBILITY. WIND
SPEEDS ARE IN MILES-PER-HOUR.



USA.gov is the U.S. government's official web portal to all federal, state and local government web resources and services.